Weather History for Macon, GA

Change the Weather History Date:

Thursday, March 14, 2013

  Actual Average Record
Temperature  
Mean Temperature 45 °F 56 °F  
Max Temperature 59 °F 69 °F 85 °F (1953)
Min Temperature 31 °F 44 °F 21 °F (1926)
Degree Days  
Heating Degree Days 20 9  
Month to date heating degree days 244 148  
Since 1 July heating degree days 1918 2073  
Cooling Degree Days 0 1  
Month to date cooling degree days 0 3  
Year to date cooling degree days 18 6  
Moisture  
Dew Point 20 °F    
Average Humidity 41    
Maximum Humidity 63    
Minimum Humidity 19    
Precipitation  
Precipitation 0.00 in 0.15 in 3.66 in (1929)
Month to date precipitation 0.95 2.17  
Year to date precipitation 15.87 10.77  
Snow  
Snow 0.00 in 0.00 in 0.00 in (2002)
Month to date snowfall 0.0 0.1  
Since 1 July snowfall 0.0 0.6  
Snow Depth -    
Sea Level Pressure  
Sea Level Pressure 30.28 in    
Wind  
Wind Speed 7 mph (NW)    
Max Wind Speed 20 mph    
Max Gust Speed 28 mph    
Visibility 10 miles    
Events      
T = Trace of Precipitation, MM = Missing Value Source: NWS Daily Summary

Daily Weather History Graph

Daily Weather History Graph

Search for Another Location

Airport:

Trip Planner

Search our weather history database for the weather conditions in past years. The results will help you decide how hot, cold, wet, or windy it might be!

Date:

Astronomy

Mar. 14, 2013 Rise Set
Actual Time 7:45 AM EDT 7:42 PM EDT
Civil Twilight 7:21 AM EDT 8:06 PM EDT
Nautical Twilight 6:52 AM EDT 8:35 PM EDT
Astronomical Twilight 6:24 AM EDT 9:03 PM EDT
Moon 9:10 AM EDT (3/14) 10:44 PM EDT (3/14)
Length of Visible Light 12h 45m
Length of Day
11h 56m
Waxing Crescent, 9% of the Moon is Illuminated
Mar 14
Waxing Crescent
Mar 19
First Quarter
Mar 27
Full
Apr 3
Last Quarter
Apr 10
New

Hourly Weather History & Observations

Time (EDT) Temp. Windchill Dew Point Humidity Pressure Visibility Wind Dir Wind Speed Gust Speed Precip Events Conditions
12:53 AM 44.1 °F 39.5 °F 21.9 °F 42% 30.24 in 10.0 mi NW 8.1 mph - N/A   Clear
1:53 AM 42.1 °F 35.7 °F 21.9 °F 45% 30.25 in 10.0 mi NW 11.5 mph 17.3 mph N/A   Clear
2:53 AM 41.0 °F 33.9 °F 21.0 °F 45% 30.27 in 10.0 mi NNW 12.7 mph 21.9 mph N/A   Clear
3:53 AM 37.9 °F 32.1 °F 21.0 °F 51% 30.26 in 10.0 mi NNW 8.1 mph - N/A   Clear
4:53 AM 36.0 °F 29.0 °F 19.0 °F 50% 30.27 in 10.0 mi NNW 9.2 mph - N/A   Clear
5:53 AM 34.0 °F 26.6 °F 19.0 °F 54% 30.28 in 10.0 mi NNW 9.2 mph 18.4 mph N/A   Clear
6:53 AM 33.1 °F 26.9 °F 19.0 °F 56% 30.30 in 10.0 mi NNW 6.9 mph - N/A   Clear
7:53 AM 30.9 °F 27.5 °F 19.0 °F 61% 30.32 in 10.0 mi NNW 3.5 mph - N/A   Clear
8:53 AM 35.1 °F 28.6 °F 19.0 °F 52% 30.35 in 10.0 mi NNW 8.1 mph - N/A   Clear
9:53 AM 39.0 °F 33.4 °F 19.0 °F 45% 30.36 in 10.0 mi North 8.1 mph - N/A   Clear
10:53 AM 42.1 °F 37.1 °F 19.9 °F 41% 30.38 in 10.0 mi North 8.1 mph - N/A   Clear
11:53 AM 44.1 °F 42.5 °F 19.0 °F 37% 30.38 in 10.0 mi Variable 3.5 mph - N/A   Clear
12:53 PM 48.0 °F - 19.9 °F 33% 30.35 in 10.0 mi North 3.5 mph - N/A   Clear
1:53 PM 51.1 °F - 19.9 °F 29% 30.32 in 10.0 mi NW 6.9 mph - N/A   Clear
2:53 PM 54.0 °F - 19.9 °F 26% 30.29 in 10.0 mi Variable 3.5 mph - N/A   Clear
3:53 PM 55.9 °F - 18.0 °F 23% 30.26 in 10.0 mi Variable 4.6 mph - N/A   Clear
4:53 PM 59.0 °F - 17.1 °F 20% 30.24 in 10.0 mi WNW 8.1 mph 17.3 mph N/A   Clear
5:53 PM 57.9 °F - 17.1 °F 20% 30.24 in 10.0 mi NW 10.4 mph 18.4 mph N/A   Clear
6:53 PM 55.9 °F - 16.0 °F 21% 30.23 in 10.0 mi NW 4.6 mph - N/A   Clear
7:53 PM 50.0 °F - 19.9 °F 31% 30.23 in 10.0 mi West 3.5 mph - N/A   Clear
8:53 PM 46.0 °F 44.8 °F 23.0 °F 40% 30.23 in 10.0 mi West 3.5 mph - N/A   Clear
9:53 PM 43.0 °F 39.5 °F 25.0 °F 49% 30.24 in 10.0 mi WNW 5.8 mph - N/A   Clear
10:53 PM 42.1 °F 38.4 °F 24.1 °F 49% 30.27 in 10.0 mi WNW 5.8 mph - N/A   Clear
11:53 PM 42.1 °F 38.4 °F 28.9 °F 60% 30.27 in 9.0 mi West 5.8 mph - N/A   Mostly Cloudy